31.9°F
Current conditions from King Hill
Updated every 5 minutes
 
  Friday April 25, 2014

Station Historical Data
Daily Summary for September 3, 2011 Units:  Metric    English   Both
« Previous Day
Next Day »
Daily Weekly Monthly Yearly Custom
  High: Low: Average:
Temperature: 29.3 °C 19.3 °C 22.4 °C
Dew Point: 23.4 °C 15.6 °C 18.7 °C
Humidity: 95% 63% 80%
Wind Speed: 16.1km/h 1.6km/h 7.4km/h
Wind Gust: 30.6km/h - -
Wind- - SW
Pressure: 1011.1 hPa 1009 hPa -
Precipitation: 0 mm    
Historical Graphs
 
 
Tabular Data for September 3, 2011
Time Temperature Dew Point Pressure Wind Wind Speed Wind Gust Humidity Daily Rainfall
00:00 19.8 °C 15.6 °C 1011.1 hPa SSW 11.3 km/h 22.5 km/h 77% 0 mm
00:05 19.8 °C 15.7 °C 1010.7 hPa SW 8 km/h 22.5 km/h 77% 0 mm
00:10 19.8 °C 15.7 °C 1010.7 hPa SSW 6.4 km/h 24.1 km/h 77% 0 mm
00:15 19.8 °C 15.8 °C 1010.4 hPa SSW 4.8 km/h 24.1 km/h 78% 0 mm
00:20 19.7 °C 15.8 °C 1010 hPa SSW 8 km/h 17.7 km/h 78% 0 mm
00:25 19.7 °C 15.8 °C 1010 hPa SSW 4.8 km/h 17.7 km/h 78% 0 mm
00:30 19.6 °C 15.7 °C 1010 hPa SW 6.4 km/h 22.5 km/h 78% 0 mm
00:35 19.6 °C 15.8 °C 1010 hPa SSW 8 km/h 24.1 km/h 79% 0 mm
00:40 19.4 °C 15.9 °C 1009.7 hPa SW 6.4 km/h 24.1 km/h 80% 0 mm
00:45 19.4 °C 15.8 °C 1009.7 hPa SSW 8 km/h 17.7 km/h 80% 0 mm
00:50 19.4 °C 15.8 °C 1009.7 hPa SW 8 km/h 19.3 km/h 80% 0 mm
00:55 19.4 °C 15.8 °C 1009.4 hPa SSW 9.7 km/h 27.4 km/h 80% 0 mm
01:00 19.4 °C 15.8 °C 1009.4 hPa SW 6.4 km/h 27.4 km/h 80% 0 mm
01:05 19.4 °C 15.8 °C 1009.4 hPa SW 6.4 km/h 20.9 km/h 80% 0 mm
01:10 19.3 °C 15.8 °C 1009.7 hPa SSW 6.4 km/h 30.6 km/h 80% 0 mm
01:15 19.4 °C 15.8 °C 1009.7 hPa SSW 8 km/h 30.6 km/h 80% 0 mm
01:20 19.4 °C 15.8 °C 1009.4 hPa SW 6.4 km/h 20.9 km/h 80% 0 mm
01:25 19.4 °C 15.9 °C 1009.4 hPa SW 9.7 km/h 22.5 km/h 80% 0 mm
01:30 19.4 °C 16.1 °C 1009.7 hPa SW 9.7 km/h 22.5 km/h 81% 0 mm
01:35 19.4 °C 16.1 °C 1009.7 hPa SW 9.7 km/h 20.9 km/h 81% 0 mm
01:40 19.4 °C 16.1 °C 1009.7 hPa SW 8 km/h 20.9 km/h 81% 0 mm
01:45 19.4 °C 16.1 °C 1009.7 hPa SW 9.7 km/h 19.3 km/h 81% 0 mm
01:50 19.4 °C 16.1 °C 1009.7 hPa SW 9.7 km/h 20.9 km/h 81% 0 mm
01:55 19.4 °C 16.1 °C 1009.7 hPa SW 9.7 km/h 22.5 km/h 81% 0 mm
02:00 19.4 °C 16.1 °C 1009.7 hPa SW 6.4 km/h 22.5 km/h 81% 0 mm
02:05 19.4 °C 16.1 °C 1009.7 hPa SW 8 km/h 20.9 km/h 81% 0 mm
02:10 19.4 °C 16.1 °C 1010 hPa SW 12.9 km/h 20.9 km/h 81% 0 mm
02:15 19.4 °C 16.1 °C 1009.7 hPa SW 4.8 km/h 20.9 km/h 81% 0 mm
02:20 19.4 °C 16.1 °C 1009.7 hPa SSW 3.2 km/h 20.9 km/h 81% 0 mm
02:25 19.5 °C 16.2 °C 1009.7 hPa SSW 4.8 km/h 19.3 km/h 81% 0 mm
02:30 19.6 °C 16.2 °C 1009.7 hPa SW 6.4 km/h 20.9 km/h 81% 0 mm
02:35 19.6 °C 16.3 °C 1010 hPa SW 6.4 km/h 20.9 km/h 81% 0 mm
02:40 19.7 °C 16.3 °C 1009.7 hPa SW 4.8 km/h 20.9 km/h 81% 0 mm
02:45 19.7 °C 16.3 °C 1009.7 hPa SW 4.8 km/h 16.1 km/h 81% 0 mm
02:50 19.7 °C 16.3 °C 1009.7 hPa SW 4.8 km/h 19.3 km/h 81% 0 mm
02:55 19.7 °C 16.4 °C 1009.7 hPa SSW 11.3 km/h 19.3 km/h 81% 0 mm
03:00 19.7 °C 16.4 °C 1009.7 hPa SW 4.8 km/h 20.9 km/h 81% 0 mm
03:05 19.7 °C 16.4 °C 1009.7 hPa SW 4.8 km/h 20.9 km/h 81% 0 mm
03:10 19.7 °C 16.4 °C 1009.7 hPa SSW 9.7 km/h 20.9 km/h 81% 0 mm
03:15 19.7 °C 16.2 °C 1009.4 hPa SSW 8 km/h 20.9 km/h 80% 0 mm
03:20 19.8 °C 16.2 °C 1009.4 hPa SSW 11.3 km/h 24.1 km/h 80% 0 mm
03:25 19.8 °C 16.3 °C 1009.4 hPa SSW 4.8 km/h 24.1 km/h 80% 0 mm
03:30 19.9 °C 16.3 °C 1009.4 hPa SSW 9.7 km/h 25.7 km/h 80% 0 mm
03:35 19.9 °C 16.4 °C 1009.4 hPa SW 6.4 km/h 25.7 km/h 80% 0 mm
03:40 19.9 °C 16.4 °C 1009.4 hPa SSW 11.3 km/h 27.4 km/h 80% 0 mm
03:45 19.9 °C 16.4 °C 1009.4 hPa SSW 8 km/h 27.4 km/h 80% 0 mm
03:50 19.9 °C 16.4 °C 1009 hPa SW 9.7 km/h 20.9 km/h 80% 0 mm
03:55 20 °C 16.4 °C 1009 hPa SSW 8 km/h 22.5 km/h 80% 0 mm
04:00 19.9 °C 16.4 °C 1009 hPa SSW 6.4 km/h 24.1 km/h 80% 0 mm
04:05 20 °C 16.4 °C 1009.4 hPa SW 4.8 km/h 25.7 km/h 80% 0 mm
04:10 20 °C 16.4 °C 1009.4 hPa SSW 11.3 km/h 25.7 km/h 80% 0 mm
04:15 20 °C 16.4 °C 1009.4 hPa SW 12.9 km/h 27.4 km/h 80% 0 mm
04:20 20.1 °C 16.5 °C 1009.4 hPa SW 16.1 km/h 27.4 km/h 80% 0 mm
04:25 20 °C 16.4 °C 1009.4 hPa SW 11.3 km/h 25.7 km/h 80% 0 mm
04:30 20 °C 16.4 °C 1009 hPa SW 16.1 km/h 25.7 km/h 80% 0 mm
04:35 20 °C 16.3 °C 1009.4 hPa SW 14.5 km/h 29 km/h 79% 0 mm
04:40 20 °C 16.3 °C 1009 hPa WSW 8 km/h 29 km/h 79% 0 mm
04:45 20 °C 16.4 °C 1009.4 hPa SW 12.9 km/h 27.4 km/h 80% 0 mm
04:50 19.9 °C 16.2 °C 1009.4 hPa SW 14.5 km/h 27.4 km/h 79% 0 mm
04:55 19.9 °C 16.2 °C 1009.4 hPa SW 11.3 km/h 27.4 km/h 79% 0 mm
05:00 19.9 °C 16.2 °C 1009 hPa SW 8 km/h 29 km/h 79% 0 mm
05:05 19.9 °C 16.2 °C 1009.4 hPa SW 12.9 km/h 29 km/h 79% 0 mm
05:10 19.9 °C 16.2 °C 1009 hPa SW 11.3 km/h 22.5 km/h 79% 0 mm
05:15 19.9 °C 16.2 °C 1009 hPa SSW 12.9 km/h 27.4 km/h 79% 0 mm
05:20 19.9 °C 16.2 °C 1009.4 hPa SW 14.5 km/h 30.6 km/h 79% 0 mm
05:25 19.9 °C 16.2 °C 1009 hPa SW 11.3 km/h 30.6 km/h 79% 0 mm
05:35 19.8 °C 16.1 °C 1009.4 hPa SSW 11.3 km/h 29 km/h 79% 0 mm
05:40 19.8 °C 16.1 °C 1009.4 hPa SW 8 km/h 25.7 km/h 79% 0 mm
05:45 19.7 °C 16 °C 1009.4 hPa SW 9.7 km/h 27.4 km/h 79% 0 mm
05:50 19.7 °C 15.9 °C 1009.4 hPa SW 8 km/h 27.4 km/h 79% 0 mm
05:55 19.7 °C 16.1 °C 1009.4 hPa SW 11.3 km/h 22.5 km/h 80% 0 mm
06:00 19.7 °C 16.1 °C 1009.7 hPa SW 9.7 km/h 25.7 km/h 80% 0 mm
06:05 19.7 °C 16.1 °C 1009.7 hPa SW 8 km/h 25.7 km/h 80% 0 mm
06:10 19.7 °C 16.1 °C 1009.7 hPa SW 9.7 km/h 22.5 km/h 80% 0 mm
06:15 19.6 °C 16.1 °C 1009.7 hPa SW 8 km/h 22.5 km/h 80% 0 mm
06:20 19.6 °C 16.1 °C 1009.7 hPa SSW 6.4 km/h 20.9 km/h 80% 0 mm
06:25 19.6 °C 16.1 °C 1009.7 hPa SW 11.3 km/h 20.9 km/h 80% 0 mm
06:30 19.6 °C 16.1 °C 1009.7 hPa SW 8 km/h 22.5 km/h 80% 0 mm
06:35 19.6 °C 16.1 °C 1009.7 hPa SW 9.7 km/h 22.5 km/h 80% 0 mm
06:40 19.6 °C 16 °C 1009.7 hPa SW 4.8 km/h 17.7 km/h 80% 0 mm
06:45 19.5 °C 15.9 °C 1009.7 hPa SSW 11.3 km/h 20.9 km/h 80% 0 mm
06:50 19.4 °C 15.9 °C 1009.7 hPa SSW 9.7 km/h 22.5 km/h 80% 0 mm
06:55 19.4 °C 16.1 °C 1009.7 hPa SW 8 km/h 22.5 km/h 81% 0 mm
07:00 19.3 °C 16 °C 1009.7 hPa SSW 6.4 km/h 20.9 km/h 81% 0 mm
07:05 19.4 °C 16.1 °C 1009.7 hPa SSW 9.7 km/h 20.9 km/h 81% 0 mm
07:10 19.4 °C 16.1 °C 1009.7 hPa SSW 6.4 km/h 20.9 km/h 81% 0 mm
07:15 19.4 °C 16.1 °C 1009.7 hPa SSW 8 km/h 20.9 km/h 81% 0 mm
07:20 19.5 °C 16.2 °C 1009.7 hPa SW 11.3 km/h 20.9 km/h 81% 0 mm
07:25 19.6 °C 16.2 °C 1009.7 hPa SW 11.3 km/h 22.5 km/h 81% 0 mm
07:30 19.6 °C 16.3 °C 1009.7 hPa SSW 12.9 km/h 22.5 km/h 81% 0 mm
07:35 19.7 °C 16.3 °C 1009.7 hPa SW 6.4 km/h 22.5 km/h 81% 0 mm
07:40 19.7 °C 16.3 °C 1009.7 hPa SW 6.4 km/h 17.7 km/h 81% 0 mm
07:45 19.7 °C 16.3 °C 1009.7 hPa SSW 6.4 km/h 17.7 km/h 81% 0 mm
07:50 19.7 °C 16.3 °C 1009.7 hPa SW 8 km/h 17.7 km/h 81% 0 mm
07:55 19.7 °C 16.3 °C 1009.7 hPa SW 9.7 km/h 17.7 km/h 81% 0 mm
08:00 19.7 °C 16.3 °C 1009.7 hPa SW 4.8 km/h 19.3 km/h 81% 0 mm
08:05 19.7 °C 16.3 °C 1009.7 hPa SW 3.2 km/h 19.3 km/h 81% 0 mm
08:10 19.7 °C 16.3 °C 1009.7 hPa SSW 6.4 km/h 14.5 km/h 81% 0 mm
08:15 19.7 °C 16.6 °C 1009.7 hPa SW 11.3 km/h 22.5 km/h 82% 0 mm
08:20 19.8 °C 16.5 °C 1009.7 hPa SW 11.3 km/h 25.7 km/h 81% 0 mm
08:25 19.9 °C 16.6 °C 1009.7 hPa SW 4.8 km/h 25.7 km/h 81% 0 mm
08:30 20.1 °C 16.8 °C 1009.7 hPa SW 9.7 km/h 22.5 km/h 81% 0 mm
08:35 20.3 °C 16.7 °C 1009.7 hPa SW 8 km/h 17.7 km/h 80% 0 mm
08:40 20.2 °C 16.7 °C 1010 hPa SW 11.3 km/h 20.9 km/h 80% 0 mm
08:45 20.1 °C 16.5 °C 1010 hPa SW 8 km/h 22.5 km/h 80% 0 mm
08:50 20 °C 16.4 °C 1009.7 hPa SW 11.3 km/h 22.5 km/h 80% 0 mm
08:55 20.1 °C 16.8 °C 1010 hPa SW 11.3 km/h 24.1 km/h 81% 0 mm
09:00 20.3 °C 16.8 °C 1010 hPa SW 9.7 km/h 24.1 km/h 80% 0 mm
09:05 20.3 °C 16.7 °C 1010 hPa SW 9.7 km/h 24.1 km/h 80% 0 mm
09:10 20.1 °C 16.6 °C 1010 hPa SW 12.9 km/h 24.1 km/h 80% 0 mm
09:15 20.1 °C 16.7 °C 1010 hPa SSW 4.8 km/h 20.9 km/h 81% 0 mm
09:20 20 °C 16.8 °C 1010 hPa SW 12.9 km/h 24.1 km/h 82% 0 mm
09:25 19.9 °C 16.8 °C 1010 hPa SSW 9.7 km/h 24.1 km/h 82% 0 mm
09:30 20 °C 17 °C 1009.7 hPa SSW 6.4 km/h 19.3 km/h 83% 0 mm
09:35 20.2 °C 17.2 °C 1010 hPa SW 6.4 km/h 19.3 km/h 83% 0 mm
09:40 20.3 °C 17.2 °C 1010 hPa SW 9.7 km/h 19.3 km/h 82% 0 mm
09:45 20.3 °C 17.2 °C 1010 hPa SW 6.4 km/h 17.7 km/h 82% 0 mm
09:50 20.4 °C 17.3 °C 1010 hPa SW 9.7 km/h 19.3 km/h 82% 0 mm
09:55 20.6 °C 17.2 °C 1010 hPa SW 11.3 km/h 19.3 km/h 81% 0 mm
10:00 20.9 °C 17.5 °C 1010 hPa SW 11.3 km/h 19.3 km/h 81% 0 mm
10:05 21 °C 17.6 °C 1010 hPa SSW 4.8 km/h 19.3 km/h 81% 0 mm
10:10 20.9 °C 17.6 °C 1010 hPa SW 4.8 km/h 16.1 km/h 81% 0 mm
10:15 20.9 °C 17.5 °C 1010 hPa SW 9.7 km/h 17.7 km/h 81% 0 mm
10:20 20.8 °C 17.2 °C 1010 hPa SW 6.4 km/h 20.9 km/h 80% 0 mm
10:25 20.7 °C 17.3 °C 1010 hPa SW 4.8 km/h 20.9 km/h 81% 0 mm
10:30 20.8 °C 17.4 °C 1010 hPa SW 6.4 km/h 17.7 km/h 81% 0 mm
10:35 21 °C 17.6 °C 1010 hPa SW 11.3 km/h 22.5 km/h 81% 0 mm
10:40 21.3 °C 17.9 °C 1010 hPa SW 3.2 km/h 22.5 km/h 81% 0 mm
10:45 21.5 °C 17.9 °C 1010 hPa SW 11.3 km/h 20.9 km/h 80% 0 mm
10:50 21.6 °C 18 °C 1010 hPa SW 4.8 km/h 20.9 km/h 80% 0 mm
10:55 21.7 °C 17.9 °C 1010 hPa SW 11.3 km/h 22.5 km/h 79% 0 mm
11:00 21.8 °C 18.2 °C 1010 hPa SW 4.8 km/h 22.5 km/h 80% 0 mm
11:05 21.8 °C 18.1 °C 1010 hPa SW 11.3 km/h 22.5 km/h 79% 0 mm
11:10 21.9 °C 18.3 °C 1010 hPa SW 3.2 km/h 22.5 km/h 80% 0 mm
11:15 22.2 °C 18.3 °C 1010 hPa SW 8 km/h 22.5 km/h 79% 0 mm
11:20 22.5 °C 18.7 °C 1010 hPa SW 8 km/h 20.9 km/h 79% 0 mm
11:25 22.7 °C 18.6 °C 1010 hPa SW 8 km/h 20.9 km/h 78% 0 mm
11:30 22.8 °C 18.6 °C 1009.7 hPa SW 8 km/h 20.9 km/h 77% 0 mm
11:35 22.8 °C 18.8 °C 1009.7 hPa SW 8 km/h 19.3 km/h 78% 0 mm
11:40 22.8 °C 18.7 °C 1009.7 hPa SSW 6.4 km/h 19.3 km/h 78% 0 mm
11:45 22.8 °C 18.8 °C 1009.7 hPa SSW 9.7 km/h 19.3 km/h 78% 0 mm
11:50 22.8 °C 18.8 °C 1010 hPa SSW 4.8 km/h 19.3 km/h 78% 0 mm
11:55 22.9 °C 18.7 °C 1010 hPa SW 6.4 km/h 16.1 km/h 77% 0 mm
12:00 22.8 °C 18.8 °C 1009.7 hPa SSW 8 km/h 16.1 km/h 78% 0 mm
12:05 22.9 °C 18.9 °C 1009.7 hPa SSW 4.8 km/h 16.1 km/h 78% 0 mm
12:10 23.1 °C 19 °C 1009.7 hPa SW 8 km/h 17.7 km/h 78% 0 mm
12:15 23.2 °C 19.4 °C 1009.7 hPa SSW 3.2 km/h 17.7 km/h 79% 0 mm
12:20 23.6 °C 19.8 °C 1009.7 hPa SW 6.4 km/h 16.1 km/h 79% 0 mm
12:25 24.1 °C 19.8 °C 1009.7 hPa SW 9.7 km/h 19.3 km/h 77% 0 mm
12:30 24.6 °C 20.4 °C 1009.7 hPa SW 1.6 km/h 19.3 km/h 78% 0 mm
12:35 25.2 °C 20.2 °C 1009.7 hPa SSW 1.6 km/h 16.1 km/h 74% 0 mm
12:40 25.3 °C 20.4 °C 1009.7 hPa SW 3.2 km/h 12.9 km/h 74% 0 mm
12:45 25.1 °C 19.9 °C 1009.7 hPa SSW 4.8 km/h 14.5 km/h 73% 0 mm
12:50 25.1 °C 20.3 °C 1009.7 hPa SSW 3.2 km/h 14.5 km/h 75% 0 mm
12:55 25.2 °C 20.4 °C 1009.7 hPa SW 3.2 km/h 11.3 km/h 75% 0 mm
13:00 25.2 °C 20.7 °C 1009.7 hPa SW 3.2 km/h 11.3 km/h 76% 0 mm
13:05 25.3 °C 20.3 °C 1009.7 hPa SSW 3.2 km/h 11.3 km/h 74% 0 mm
13:10 25.5 °C 20.7 °C 1010 hPa Calm   12.9 km/h 75% 0 mm
13:15 25.9 °C 21.6 °C 1009.7 hPa Calm   12.9 km/h 77% 0 mm
13:20 26.4 °C 21.2 °C 1009.7 hPa South 3.2 km/h 8 km/h 73% 0 mm
13:25 26.7 °C 21.2 °C 1009.7 hPa SSW 3.2 km/h 14.5 km/h 72% 0 mm
13:30 26.8 °C 21.1 °C 1009.7 hPa SSW 3.2 km/h 14.5 km/h 71% 0 mm
13:35 27 °C 21.3 °C 1009.7 hPa Calm   11.3 km/h 71% 0 mm
13:40 27.1 °C 21.2 °C 1009.7 hPa Calm   11.3 km/h 70% 0 mm
13:45 27.4 °C 21.5 °C 1009.7 hPa SSW 1.6 km/h 11.3 km/h 70% 0 mm
13:50 27.4 °C 21.9 °C 1009.4 hPa Calm   11.3 km/h 72% 0 mm
13:55 27.4 °C 21.3 °C 1009.4 hPa South 1.6 km/h 11.3 km/h 69% 0 mm
14:00 27.6 °C 22.5 °C 1009.4 hPa Calm   11.3 km/h 74% 0 mm
14:05 27.6 °C 22.1 °C 1009.4 hPa SSE 1.6 km/h 11.3 km/h 72% 0 mm
14:10 27.9 °C 22.4 °C 1009.4 hPa SSW 1.6 km/h 11.3 km/h 72% 0 mm
14:15 27.8 °C 21.8 °C 1009.4 hPa WSW 1.6 km/h 12.9 km/h 70% 0 mm
14:20 27.7 °C 21.8 °C 1009.7 hPa Calm   12.9 km/h 70% 0 mm
14:25 27.3 °C 21.4 °C 1009.7 hPa SSW 1.6 km/h 8 km/h 70% 0 mm
14:30 27.1 °C 21.6 °C 1009.7 hPa Calm   9.7 km/h 72% 0 mm
14:35 27.4 °C 21.9 °C 1009.7 hPa SW 3.2 km/h 12.9 km/h 72% 0 mm
14:45 28.1 °C 22.1 °C 1009.4 hPa Calm   11.3 km/h 70% 0 mm
14:50 28.2 °C 21.4 °C 1009.4 hPa WSW 1.6 km/h 14.5 km/h 67% 0 mm
14:55 28.3 °C 21.4 °C 1009.4 hPa West 3.2 km/h 14.5 km/h 66% 0 mm
15:00 28.4 °C 22.2 °C 1009.4 hPa West 1.6 km/h 11.3 km/h 69% 0 mm
15:05 28.3 °C 22.1 °C 1009.4 hPa Calm   11.3 km/h 69% 0 mm
15:10 28.5 °C 21.6 °C 1009.4 hPa West 1.6 km/h 8 km/h 66% 0 mm
15:15 28.6 °C 21.9 °C 1009.4 hPa WNW 3.2 km/h 11.3 km/h 67% 0 mm
15:20 28.7 °C 21.9 °C 1009.4 hPa Calm   11.3 km/h 67% 0 mm
15:25 28.8 °C 22.3 °C 1009.4 hPa Calm   8 km/h 68% 0 mm
15:30 29 °C 22.3 °C 1009.4 hPa Calm   1.6 km/h 67% 0 mm
15:35 29.2 °C 21.4 °C 1009.4 hPa West 1.6 km/h 8 km/h 63% 0 mm
15:40 29.2 °C 22.2 °C 1009.4 hPa West 1.6 km/h 8 km/h 66% 0 mm
15:45 29 °C 22 °C 1009.4 hPa Calm   8 km/h 66% 0 mm
15:50 28.8 °C 21.8 °C 1009.4 hPa Calm   8 km/h 66% 0 mm
15:55 28.7 °C 21.9 °C 1009.7 hPa Calm   8 km/h 67% 0 mm
16:00 28.8 °C 22.3 °C 1009.7 hPa NW 3.2 km/h 9.7 km/h 68% 0 mm
16:05 29.1 °C 22.1 °C 1009.7 hPa West 1.6 km/h 9.7 km/h 66% 0 mm
16:10 29.2 °C 23.4 °C 1009.7 hPa West 1.6 km/h 11.3 km/h 71% 0 mm
16:15 29.1 °C 22.3 °C 1009.7 hPa Calm   11.3 km/h 67% 0 mm
16:20 29.1 °C 22.6 °C 1009.7 hPa West 1.6 km/h 8 km/h 68% 0 mm
16:25 29.2 °C 22.7 °C 1009.7 hPa West 1.6 km/h 8 km/h 68% 0 mm
16:30 29.3 °C 22.8 °C 1009.7 hPa West 1.6 km/h 8 km/h 68% 0 mm
16:35 29.1 °C 21.3 °C 1009.7 hPa Calm   9.7 km/h 63% 0 mm
16:40 28.8 °C 21.6 °C 1009.7 hPa Calm   9.7 km/h 65% 0 mm
16:45 28.7 °C 21.7 °C 1009.7 hPa Calm   12.9 km/h 66% 0 mm
16:50 28.6 °C 21.7 °C 1009.7 hPa Calm   12.9 km/h 66% 0 mm
16:55 28.7 °C 22.7 °C 1009.7 hPa Calm   3.2 km/h 70% 0 mm
17:00 28.4 °C 22.4 °C 1009.7 hPa Calm   8 km/h 70% 0 mm
17:05 28.4 °C 21.9 °C 1009.7 hPa Calm   8 km/h 68% 0 mm
17:10 28.4 °C 21.4 °C 1009.7 hPa Calm   1.6 km/h 66% 0 mm
17:15 28.5 °C 21.8 °C 1009.7 hPa West 1.6 km/h 8 km/h 67% 0 mm
17:20 28.7 °C 21.9 °C 1009.7 hPa Calm   8 km/h 67% 0 mm
17:25 28.8 °C 22.3 °C 1009.7 hPa Calm   1.6 km/h 68% 0 mm
17:30 28.9 °C 22.7 °C 1009.7 hPa Calm   1.6 km/h 69% 0 mm
17:40 28.7 °C 21.9 °C 1009.7 hPa West 1.6 km/h 8 km/h 67% 0 mm
17:45 28.5 °C 21.8 °C 1009.7 hPa Calm   6.4 km/h 67% 0 mm
17:50 28.4 °C 22.2 °C 1009.7 hPa Calm   1.6 km/h 69% 0 mm
17:55 28.2 °C 22.7 °C 1009.7 hPa Calm   1.6 km/h 72% 0 mm
18:00 28.1 °C 22.4 °C 1009.7 hPa Calm   1.6 km/h 71% 0 mm
18:05 28.2 °C 22.7 °C 1009.7 hPa Calm   1.6 km/h 72% 0 mm
18:10 28.1 °C 22.1 °C 1009.7 hPa Calm   1.6 km/h 70% 0 mm
18:15 27.7 °C 21.8 °C 1009.7 hPa Calm   1.6 km/h 70% 0 mm
18:20 27.5 °C 22 °C 1009.4 hPa Calm   1.6 km/h 72% 0 mm
18:25 27.3 °C 22.1 °C 1009.7 hPa Calm   1.6 km/h 73% 0 mm
18:30 27.1 °C 22.2 °C 1009.7 hPa Calm     75% 0 mm
18:35 26.6 °C 22.3 °C 1009.7 hPa Calm     77% 0 mm
18:45 25.7 °C 21.8 °C 1009.7 hPa Calm     79% 0 mm
18:50 25.2 °C 21.5 °C 1009.7 hPa Calm     80% 0 mm
18:55 24.8 °C 21.5 °C 1009.7 hPa Calm     82% 0 mm
19:00 24.4 °C 21.4 °C 1009.7 hPa Calm     83% 0 mm
19:05 24.1 °C 21.2 °C 1009.7 hPa Calm     84% 0 mm
19:10 23.7 °C 21.1 °C 1009.7 hPa Calm     85% 0 mm
19:15 23.4 °C 20.9 °C 1009.4 hPa Calm     86% 0 mm
19:20 23.2 °C 20.9 °C 1009.4 hPa Calm     87% 0 mm
19:25 23 °C 20.7 °C 1009.4 hPa Calm     87% 0 mm
19:30 22.8 °C 20.7 °C 1009.4 hPa Calm     88% 0 mm
19:35 22.6 °C 20.5 °C 1009.7 hPa Calm     88% 0 mm
19:40 22.3 °C 20.3 °C 1009.7 hPa Calm     88% 0 mm
19:45 22.2 °C 20.3 °C 1009.7 hPa Calm     89% 0 mm
19:50 22.1 °C 20.2 °C 1009.7 hPa Calm     89% 0 mm
19:55 22 °C 20.1 °C 1009.7 hPa Calm     89% 0 mm
20:00 22 °C 20.3 °C 1009.7 hPa Calm     90% 0 mm
20:05 22 °C 20.3 °C 1009.7 hPa Calm     90% 0 mm
20:10 22 °C 20.4 °C 1009.7 hPa Calm     91% 0 mm
20:15 21.9 °C 20.2 °C 1009.7 hPa Calm     90% 0 mm
20:20 21.7 °C 19.9 °C 1009.7 hPa Calm     90% 0 mm
20:25 21.4 °C 19.7 °C 1010 hPa Calm     90% 0 mm
20:30 21.2 °C 19.5 °C 1010 hPa Calm     90% 0 mm
20:35 21 °C 19.3 °C 1010 hPa Calm     90% 0 mm
20:40 20.8 °C 19.1 °C 1010 hPa Calm     90% 0 mm
20:45 20.8 °C 19.3 °C 1010 hPa Calm     91% 0 mm
20:50 20.8 °C 19.3 °C 1010 hPa Calm     91% 0 mm
20:55 21.1 °C 19.9 °C 1010 hPa Calm     93% 0 mm
21:00 21.2 °C 20.1 °C 1010 hPa Calm     93% 0 mm
21:05 21.2 °C 20 °C 1010 hPa Calm     93% 0 mm
21:10 21.2 °C 20 °C 1009.7 hPa Calm     93% 0 mm
21:15 21.2 °C 20.2 °C 1010 hPa Calm     94% 0 mm
21:20 21.3 °C 20.3 °C 1010 hPa Calm     94% 0 mm
21:25 21.2 °C 20.2 °C 1010 hPa Calm     94% 0 mm
21:30 21.1 °C 19.9 °C 1010 hPa Calm     93% 0 mm
21:40 21.1 °C 20.1 °C 1010 hPa Calm     94% 0 mm
21:45 21.1 °C 20.1 °C 1009.7 hPa Calm     94% 0 mm
21:50 21.1 °C 20.1 °C 1009.7 hPa Calm     94% 0 mm
21:55 21.1 °C 20.1 °C 1009.7 hPa Calm     94% 0 mm
22:00 21.1 °C 20.1 °C 1009.7 hPa Calm     94% 0 mm
22:05 21.1 °C 20.1 °C 1009.7 hPa Calm     94% 0 mm
22:10 21.1 °C 20.2 °C 1009.7 hPa Calm     95% 0 mm
22:15 21.1 °C 20.2 °C 1009.7 hPa Calm     95% 0 mm
22:20 21 °C 20.2 °C 1009.7 hPa Calm     95% 0 mm
22:25 20.9 °C 20.1 °C 1009.7 hPa Calm   1.6 km/h 95% 0 mm
22:30 21 °C 20.2 °C 1009.7 hPa Calm   1.6 km/h 95% 0 mm
22:35 21 °C 20.2 °C 1009.7 hPa Calm   1.6 km/h 95% 0 mm
22:45 20.9 °C 20.1 °C 1009.7 hPa Calm     95% 0 mm
22:50 20.9 °C 20.1 °C 1009.7 hPa Calm     95% 0 mm
22:55 20.8 °C 20 °C 1009.7 hPa Calm     95% 0 mm
23:00 20.8 °C 19.9 °C 1009.7 hPa Calm     95% 0 mm
23:05 20.7 °C 19.8 °C 1009.7 hPa Calm     95% 0 mm
23:10 20.6 °C 19.8 °C 1009.7 hPa Calm     95% 0 mm
23:15 20.6 °C 19.7 °C 1009.7 hPa Calm     95% 0 mm
23:20 20.5 °C 19.7 °C 1009.7 hPa Calm     95% 0 mm
23:25 20.4 °C 19.6 °C 1009.7 hPa Calm     95% 0 mm
23:30 20.3 °C 19.5 °C 1009.7 hPa Calm     95% 0 mm
23:35 20.3 °C 19.4 °C 1009.4 hPa Calm     95% 0 mm
23:40 20.2 °C 19.3 °C 1009.7 hPa Calm     95% 0 mm
23:45 20.1 °C 19.3 °C 1009.7 hPa Calm     95% 0 mm
23:50 20.1 °C 19.2 °C 1009.4 hPa Calm     95% 0 mm
23:55 20 °C 19.2 °C 1009.7 hPa Calm     95% 0 mm
Westford Weather
Compliments of Weather Underground

 
 
Current Radar Loop:

Copyright © WestfordWeather.net 2007-2014. All rights reserved.